THORAD AGENA D DEB, 4645

Orbit data source: Space-Track

THORAD AGENA D DEB, 4645 is space debris in SSO originally from a launch on Wed, 08 Apr 1970 UTC launched from the Air Force Western Test Range (AFWTR). Debris objects in space refer to the collection of defunct objects orbiting the Earth. Examples of debris include non-operational satellites, rocket bodies, and fragments generated from explosions, collisions, or faulty payload assembly.

Loading next visibility...
Identifier
4645, 1970-025AD
Orbit
SSO
Country
Flag of USUS
Related business
Manufacturer
Unknown
Mission
Spacecraft
Bus & Motor
Unknown
Mass
Unknown
Launch date (UTC)
1970-04-08 (55 years ago)
Launch vehicle
Unknown
Launch site
Air Force Western Test Range (AFWTR)
Object type
Payload
Rocket body
Debris
Shape & HBR
Unknown
Radar Cross Section
Small (<0.1 m²)

Expand to show TLE details & history
Last TLE update: 1 day ago

TLE from 1 day ago
0 THORAD AGENA D DEB
1 04645U 70025AD  25259.89315704  .00000006  00000-0  13165-3 0  9998
2 04645  99.9273 335.0010 0329752 128.8818 296.3126 12.86555906600288
Epoch: 2025-09-16T21:26Z
TLE epoch observation values (Epoch: 2025-09-16T21:26:08.768Z)
Latitude
60.28182°
Longitude
-0.37434°
Altitude
1,219.772 km
Speed
7.3 km/s
True Right ascension
21h 08m 57s
True Declination
60° 08' 33"
Sunlit
Object was in daylight at epoch
Visualization orbit readout
Latitude
Unknown
Longitude
Unknown
Altitude
Unknown
Speed
Unknown
Apparent Right ascension
Unknown
Apparent Declination
Unknown
Sunlit
N/A
Visualization observer readout
Local Sidereal Time
16:47:59
Azimuth
Unknown
Elevation
Unknown
Doppler factor
Unknown
Orbital elements
Apogee altitude
1,566.221 km
Perigee altitude
1,059.013 km
Semi-major axis
7,690.754 km
Eccentricity
0.03298
Inclination
99.9273°
RAAN
335.001°
Arg. of periapsis
128.8818°
True anomaly
292.86453°
Mean anomaly
296.3126°
Eccentric anomaly
294.59467°
Mean motion
3.21803 °/min
Orbital period
111.87 mins
BSTAR
0.00013165
Loading maneuver chart data...
Computing Atmospheric mass density...

Documentation

Showing up to 5 results
|